Change the Weather History Date:

Sunday, June 23, 2013

  Actual Average Record
Temperature  
Mean Temperature 76 °F 74 °F  
Max Temperature 85 °F 83 °F 97 °F (1965)
Min Temperature 66 °F 64 °F 48 °F (1992)
Degree Days  
Heating Degree Days 0 0  
Month to date heating degree days 2 17  
Since 1 June heating degree days 2 17  
Since 1 July heating degree days 5117 5268  
Cooling Degree Days 11 9  
Month to date cooling degree days 132 146  
Year to date cooling degree days 215 211  
Since 1 June cooling degree days 132 146  
Growing Degree Days 25 (Base 50)    
Moisture  
Dew Point 67 °F    
Average Humidity 71    
Maximum Humidity 87    
Minimum Humidity 55    
Precipitation  
Precipitation 0.01 in 0.12 in 1.38 in (1974)
Month to date precipitation 3.03 2.75  
Year to date precipitation 15.19 18.28  
Sea Level Pressure  
Sea Level Pressure 30.13 in    
Wind  
Wind Speed 3 mph (South)    
Max Wind Speed 12 mph    
Max Gust Speed 15 mph    
Visibility 10 miles    
Events Rain    
T = Trace of Precipitation, MM = Missing Value Source: NWS Daily Summary

Daily Weather History Graph

Daily Weather History Graph

Search for Another Location

Airport or City:

Trip Planner

Search our weather history database for the weather conditions in past years. The results will help you decide how hot, cold, wet, or windy it might be!

Date:

Astronomy

Jun. 23, 2013 Rise Set
Actual Time 5:38 AM EDT 8:40 PM EDT
Civil Twilight 5:05 AM EDT 9:13 PM EDT
Nautical Twilight 4:23 AM EDT 9:55 PM EDT
Astronomical Twilight 3:34 AM EDT 10:44 PM EDT
Moon 8:50 PM EDT (6/23) 5:53 AM EDT (6/23)
Length of Visible Light 16h 08m
Length of Day
15h 02m
Full, 100% of the Moon is Illuminated
Jun 23
Full
Jun 30
Last Quarter
Jul 8
New
Jul 15
First Quarter
Jul 22
Full

Hourly Weather History & Observations

Time (EDT) Temp. Heat Index Dew Point Humidity Pressure Visibility Wind Dir Wind Speed Gust Speed Precip Events Conditions
12:56 AM 73.9 °F - 64.0 °F 71% 30.17 in 10.0 mi South 4.6 mph - N/A   Mostly Cloudy
1:56 AM 73.0 °F - 63.0 °F 71% 30.17 in 10.0 mi Variable 4.6 mph - N/A   Mostly Cloudy
2:56 AM 71.1 °F - 63.0 °F 75% 30.16 in 10.0 mi SSE 3.5 mph - N/A   Mostly Cloudy
3:56 AM 68.0 °F - 63.0 °F 84% 30.15 in 10.0 mi Calm Calm - N/A   Mostly Cloudy
4:56 AM 66.9 °F - 63.0 °F 87% 30.16 in 10.0 mi East 3.5 mph - N/A   Scattered Clouds
5:56 AM 66.9 °F - 63.0 °F 87% 30.17 in 10.0 mi Calm Calm - N/A   Scattered Clouds
6:43 AM 69.8 °F - 64.4 °F 83% 30.18 in 10.0 mi SE 4.6 mph - N/A   Mostly Cloudy
6:56 AM 69.1 °F - 64.0 °F 84% 30.18 in 10.0 mi ESE 3.5 mph - N/A   Mostly Cloudy
7:56 AM 71.1 °F - 66.0 °F 84% 30.19 in 10.0 mi Variable 3.5 mph - N/A   Mostly Cloudy
8:56 AM 73.9 °F - 66.0 °F 76% 30.19 in 10.0 mi Calm Calm - N/A   Mostly Cloudy
9:18 AM 73.4 °F - 66.2 °F 78% 30.19 in 10.0 mi West 3.5 mph - N/A   Mostly Cloudy
9:56 AM 77.0 °F - 68.0 °F 74% 30.18 in 10.0 mi Calm Calm - N/A   Scattered Clouds
10:56 AM 79.0 °F - 68.0 °F 69% 30.17 in 10.0 mi Variable 3.5 mph - N/A   Scattered Clouds
11:56 AM 81.0 °F 83.8 °F 68.0 °F 65% 30.15 in 10.0 mi SE 3.5 mph - N/A   Mostly Cloudy
12:56 PM 81.0 °F 84.1 °F 69.1 °F 67% 30.14 in 10.0 mi SSW 6.9 mph - 0.00 in Rain Light Rain
1:56 PM 79.0 °F - 70.0 °F 74% 30.12 in 10.0 mi SW 5.8 mph - 0.01 in Rain Light Rain
2:56 PM 84.0 °F 88.4 °F 70.0 °F 63% 30.11 in 10.0 mi SW 5.8 mph - 0.00 in   Mostly Cloudy
3:56 PM 84.0 °F 87.8 °F 69.1 °F 61% 30.08 in 10.0 mi SSW 5.8 mph - N/A   Mostly Cloudy
4:56 PM 84.0 °F 88.4 °F 70.0 °F 63% 30.07 in 10.0 mi South 3.5 mph - N/A   Mostly Cloudy
5:56 PM 84.9 °F 88.8 °F 69.1 °F 59% 30.06 in 10.0 mi Calm Calm - N/A   Mostly Cloudy
6:56 PM 84.0 °F 86.5 °F 66.9 °F 56% 30.05 in 10.0 mi SW 3.5 mph - N/A   Scattered Clouds
7:56 PM 80.1 °F 82.7 °F 68.0 °F 67% 30.06 in 10.0 mi Calm Calm - N/A   Mostly Cloudy
8:56 PM 75.9 °F - 69.1 °F 79% 30.06 in 10.0 mi Calm Calm - N/A   Mostly Cloudy
9:56 PM 78.1 °F - 68.0 °F 71% 30.08 in 10.0 mi SSW 5.8 mph - N/A   Mostly Cloudy
10:56 PM 75.9 °F - 68.0 °F 76% 30.09 in 10.0 mi SSW 5.8 mph - N/A   Mostly Cloudy
11:56 PM 73.9 °F - 66.0 °F 76% 30.09 in 10.0 mi Calm Calm - N/A   Scattered Clouds